GW1509 Weather Reports


time (UTC)temp
C
wind
direction
speed
KPH
gust
KPH
rain 1hr
cm
rain 24hr
cm
rain mn
cm
humidity
%
barometer
mb
20260509161552 23 226 4.8 14.5 0.00 0.00 0.00 86 1013.6
20260509160059 23 275 4.8 12.9 0.00 0.00 0.00 84 1013.1
20260509154601 22 191 3.2 8.0 0.00 0.00 0.00 88 1013.3
20260509153050 22 207 3.2 8.0 0.00 0.00 0.00 90 1013.4
20260509151553 22 281 1.6 6.4 0.00 0.00 0.00 90 1013.7
20260509150050 22 238 3.2 8.0 0.00 0.00 0.00 90 1013.9
20260509144606 22 265 3.2 9.7 0.00 0.00 0.00 90 1014.0
20260509143056 22 252 3.2 9.7 0.00 0.00 0.00 90 1013.7
20260509141555 22 244 3.2 9.7 0.00 0.00 0.00 92 1013.7
20260509140100 21 256 1.6 6.4 0.00 0.00 0.00 94 1013.6
20260509134553 21 0 1.6 6.4 0.00 0.00 0.00 94 1013.7
20260509133058 20 0 0.0 1.6 0.00 0.00 0.00 95 1013.8
20260509131557 20 72 0.0 3.2 0.00 0.00 0.00 95 1014.0
20260509130055 20 0 0.0 3.2 0.00 0.00 0.00 95 1014.0
20260509124550 19 0 0.0 1.6 0.00 0.00 0.00 95 1013.9
20260509123049 19 0 0.0 4.8 0.00 0.00 0.00 95 1014.1
20260509121601 18 0 0.0 3.2 0.00 0.00 0.00 96 1013.9
20260509120057 18 0 0.0 0.0 0.00 0.00 0.00 96 1013.8
20260509114555 18 0 0.0 0.0 0.00 0.00 0.00 96 1013.5
20260509113055 17 0 0.0 0.0 0.00 0.00 0.00 95 1013.3
20260509111603 16 0 0.0 0.0 0.00 0.00 0.00 95 1013.1
20260509110050 16 0 0.0 1.6 0.00 0.00 0.00 95 1013.1
20260509104552 16 0 0.0 0.0 0.00 0.00 0.00 95 1012.7
20260509103100 16 0 0.0 0.0 0.00 0.00 0.00 95 1012.7
20260509101553 17 0 0.0 0.0 0.00 0.00 0.00 95 1012.6
20260509100052 17 0 0.0 0.0 0.00 0.00 0.00 94 1012.7
20260509094551 17 0 0.0 3.2 0.00 0.00 0.00 95 1012.6
20260509093053 17 0 0.0 1.6 0.00 0.00 0.00 95 1012.7
20260509091552 17 0 0.0 1.6 0.00 0.00 0.00 95 1012.7
20260509090104 17 0 0.0 0.0 0.00 0.00 0.00 95 1013.0
20260509084548 17 0 0.0 3.2 0.00 0.00 0.00 94 1013.0
20260509083058 17 0 0.0 0.0 0.00 0.00 0.00 95 1013.5
20260509081551 17 0 0.0 3.2 0.00 0.00 0.00 95 1013.2
20260509080058 17 0 0.0 3.2 0.00 0.00 0.00 94 1012.8
20260509074552 17 0 0.0 3.2 0.00 0.00 0.00 94 1013.3
20260509073049 17 28 1.6 4.8 0.00 0.00 0.00 95 1013.5
20260509071550 17 325 0.0 1.6 0.00 0.00 0.00 94 1013.1
20260509070053 17 0 0.0 1.6 0.00 0.00 0.00 94 1012.5
20260509064554 17 200 1.6 4.8 0.00 0.00 0.00 94 1013.6
20260509063056 17 0 0.0 1.6 0.00 0.00 0.00 94 1013.6
20260509061551 17 0 1.6 3.2 0.00 0.00 0.00 94 1014.0
20260509060100 17 304 0.0 3.2 0.00 0.00 0.00 94 1013.7
20260509054548 17 0 0.0 1.6 0.00 0.00 0.00 93 1014.5
20260509053127 17 0 0.0 1.6 0.00 0.00 0.00 94 1014.6
20260509051549 17 0 0.0 3.2 0.00 0.00 0.00 94 1014.8
20260509050052 17 24 0.0 3.2 0.00 0.00 0.00 94 1015.1
20260509044553 17 0 0.0 3.2 0.00 0.00 0.00 93 1015.4
20260509043104 17 29 0.0 3.2 0.00 0.00 0.00 93 1015.1
20260509041601 17 0 0.0 0.0 0.00 0.00 0.00 92 1014.7
20260509034603 17 0 0.0 0.0 0.00 0.00 0.00 91 1015.8
20260509033049 17 0 0.0 0.0 0.00 0.00 0.00 91 1016.1
20260509031603 17 0 0.0 0.0 0.00 0.00 0.00 91 1016.0
20260509030056 17 0 0.0 0.0 0.00 0.00 0.00 90 1016.0
20260509024552 17 0 0.0 0.0 0.00 0.00 0.00 89 1016.3
20260509023057 17 0 0.0 1.6 0.00 0.00 0.00 88 1016.5
20260509021552 17 281 0.0 3.2 0.00 0.00 0.00 88 1015.9
20260509020055 18 0 0.0 1.6 0.00 0.00 0.00 87 1015.6
20260509014600 18 0 0.0 0.0 0.00 0.00 0.00 87 1015.8
20260509013054 18 0 0.0 0.0 0.00 0.00 0.00 86 1015.5
20260509011552 18 0 0.0 0.0 0.00 0.00 0.00 84 1015.5
20260509010055 18 0 0.0 0.0 0.00 0.00 0.00 84 1015.5
20260509004600 18 0 0.0 6.4 0.00 0.00 0.00 83 1015.5
20260509003056 18 101 0.0 3.2 0.00 0.00 0.00 83 1015.4
20260509001552 18 0 0.0 4.8 0.00 0.00 0.00 82 1015.1
20260509000055 18 0 0.0 4.8 0.00 0.00 0.00 82 1015.0
20260508234551 18 249 0.0 3.2 0.00 0.00 0.00 81 1015.2
20260508233101 19 186 0.0 3.2 0.00 0.00 0.00 80 1014.9
20260508231552 19 146 1.6 8.0 0.00 0.00 0.00 80 1015.0
20260508230058 19 74 0.0 9.7 0.00 0.00 0.00 80 1015.1
20260508224550 19 144 0.0 8.0 0.00 0.00 0.00 79 1014.9
20260508223051 19 329 0.0 8.0 0.00 0.00 0.00 78 1014.9
20260508221552 19 166 1.6 9.7 0.00 0.00 0.00 77 1014.9
20260508220047 20 218 1.6 14.5 0.00 0.00 0.00 76 1014.9
20260508214551 20 111 3.2 9.7 0.00 0.00 0.00 76 1014.9
20260508213055 20 153 4.8 11.3 0.00 0.00 0.00 75 1014.9
20260508211556 20 94 1.6 12.9 0.00 0.00 0.00 74 1015.5
20260508210053 20 157 3.2 9.7 0.00 0.00 0.00 73 1015.1
20260508204555 20 182 4.8 12.9 0.00 0.00 0.00 72 1015.2
20260508203059 20 113 3.2 14.5 0.00 0.00 0.00 72 1014.8
20260508201558 20 163 6.4 14.5 0.00 0.00 0.00 69 1015.0
20260508200058 20 165 3.2 16.1 0.00 0.00 0.00 70 1015.4
20260508194557 21 144 8.0 16.1 0.00 0.00 0.00 68 1015.7
20260508193058 21 185 8.0 20.9 0.00 0.00 0.00 65 1015.7
20260508191558 21 186 8.0 17.7 0.00 0.00 0.00 63 1015.8
20260508190054 22 217 8.0 19.3 0.00 0.00 0.00 63 1015.9
20260508184550 22 185 4.8 19.3 0.00 0.00 0.00 64 1016.0
20260508183057 22 199 8.0 19.3 0.00 0.00 0.00 62 1016.1
20260508181554 21 158 6.4 20.9 0.00 0.00 0.00 61 1016.3
20260508180056 22 205 3.2 14.5 0.00 0.00 0.00 60 1016.2
20260508174553 22 223 4.8 14.5 0.00 0.00 0.00 62 1016.4
20260508173051 22 163 6.4 19.3 0.00 0.00 0.00 59 1016.5
20260508171605 22 143 6.4 22.5 0.00 0.00 0.00 60 1016.5
20260508170059 22 198 6.4 16.1 0.00 0.00 0.00 57 1016.8
20260508164555 22 240 6.4 17.7 0.00 0.00 0.00 57 1016.5
20260508163051 22 68 3.2 9.7 0.00 0.00 0.00 58 1016.8